DateTimeUTC,F1_A11,F1_S11,BsB_S11,BsG_S11,BsR_S11,BbsB_S11,BbsG_S11,BbsR_S11,BaB_A11,BaG_A11,BaR_A11,Tu_S11,T_S11,Uu_S11,U_S11,P_S11,T1_A11
2021-05-07T01:00:00Z,00000200,21000000,,,,,,,-000.47,-000.01,-000.17,17.4,24.5,,00.0,0673.4,31.1
2021-05-07T01:01:00Z,00000200,21000000,,,,,,,0000.27,0000.07,-000.00,17.4,24.5,,00.0,0673.4,31.1
2021-05-07T01:02:00Z,00000200,21000000,,,,,,,0000.31,0000.34,0000.35,17.4,24.6,,00.0,0673.4,31.1
2021-05-07T01:03:00Z,00000200,61000000,,,,,,,0056.77,0052.40,0041.71,17.4,24.6,,00.0,0673.4,31.1
2021-05-07T01:04:00Z,00000200,41000000,0009.56,0006.15,0003.04,0001.72,0001.67,0000.45,0054.20,0050.33,0040.33,17.6,24.5,,00.0,0674.4,31.1
2021-05-07T01:05:00Z,00000200,01000000,0006.22,0003.69,0002.28,0000.95,0000.83,0000.68,0017.29,0016.18,0012.39,17.7,24.4,,00.0,0674.5,31.1
2021-05-07T01:06:00Z,00000200,01000000,0005.66,0002.93,0001.66,0000.48,0000.58,0000.38,0009.45,0008.38,0007.41,17.6,24.3,,00.0,0674.4,31.0
2021-05-07T01:07:00Z,00000200,01000000,0003.79,0002.24,0001.47,0000.66,0000.61,0000.72,0002.01,0001.75,0001.48,17.6,24.3,,00.0,0674.4,31.0
2021-05-07T01:08:00Z,00000200,01000000,0003.85,0002.38,0001.25,0000.71,0000.58,0000.29,0001.31,0001.19,0000.66,17.5,24.3,,00.0,0674.4,31.0
2021-05-07T01:09:00Z,00000200,01000000,0003.73,0002.69,0001.38,0000.55,0000.50,0000.43,0001.13,0000.94,0000.56,17.5,24.3,,00.0,0674.4,31.0
2021-05-07T01:10:00Z,00000200,01000000,0004.87,0002.54,0001.65,0000.54,0000.49,0000.51,0001.15,0001.28,0000.91,17.5,24.2,,00.0,0674.4,31.0
2021-05-07T01:11:00Z,00000200,01000000,0004.32,0002.63,0001.28,0001.06,0000.58,0000.25,0001.22,0001.12,0001.00,17.6,24.3,,00.0,0674.4,31.0
2021-05-07T01:12:00Z,00000200,01000000,0005.15,0002.87,0001.22,0000.42,0000.59,0000.19,0002.07,0001.42,0000.98,17.6,24.3,,00.0,0674.4,31.1
2021-05-07T01:13:00Z,00000200,01000000,0005.21,0003.10,0001.32,0001.05,0000.70,0000.52,0001.48,0001.77,0001.34,17.6,24.3,,00.0,0674.4,31.0
2021-05-07T01:14:00Z,00000200,01000000,0005.14,0002.79,0001.91,0000.51,0000.59,0000.39,0001.37,0001.34,0000.93,17.6,24.3,,00.0,0674.4,31.0
2021-05-07T01:15:00Z,00000200,01000000,0004.96,0002.81,0001.54,0000.39,0000.54,0000.49,0001.27,0000.86,0001.02,17.6,24.3,,00.0,0674.4,31.0
2021-05-07T01:16:00Z,00000200,01000000,0004.05,0001.91,0000.92,0000.13,0000.54,0000.10,0001.06,0001.03,0000.55,17.5,24.2,,00.0,0674.4,31.0
2021-05-07T01:17:00Z,00000200,01000000,0004.06,0001.84,0001.32,0000.53,0000.52,0000.31,0001.11,0000.86,0000.75,17.5,24.2,,00.0,0674.4,31.0
2021-05-07T01:18:00Z,00000200,01000000,0004.37,0002.44,0001.28,0000.58,0000.74,0000.40,0000.93,0000.77,0000.20,17.4,24.2,,00.0,0674.4,31.0
2021-05-07T01:19:00Z,00000200,01000000,0003.95,0002.54,0001.12,0000.86,0000.68,0000.35,0000.72,0000.75,0000.71,17.3,24.1,,00.0,0674.5,31.0
2021-05-07T01:20:00Z,00000200,01000000,0004.11,0002.73,0001.40,0000.60,0000.59,0000.46,0000.89,0001.35,0000.59,17.3,24.1,,00.0,0674.5,31.0
2021-05-07T01:21:00Z,00000200,01000000,0004.35,0002.56,0001.24,0000.34,0000.58,0000.36,0000.82,0000.04,0000.59,17.2,24.0,,00.0,0674.4,31.0
2021-05-07T01:22:00Z,00000200,01000000,0004.46,0002.23,0001.32,0000.89,0000.53,0000.45,0001.26,0001.00,0000.64,17.2,24.0,,00.0,0674.4,31.0
2021-05-07T01:23:00Z,00000200,01000000,0004.51,0002.86,0001.29,0000.44,0000.49,0000.28,0000.86,0000.92,0000.47,17.1,24.0,,00.0,0674.4,31.0
2021-05-07T01:24:00Z,00000200,01000000,0005.02,0003.19,0001.53,0000.62,0000.80,0000.61,0003.76,0003.38,0002.89,17.1,24.0,,00.0,0674.4,31.0
2021-05-07T01:25:00Z,00000200,01000000,0006.33,0003.28,0001.60,0000.25,0000.57,0000.42,0006.93,0006.65,0005.16,17.1,23.9,,00.0,0674.4,31.0
2021-05-07T01:26:00Z,00000200,01000000,0006.64,0003.89,0002.04,0001.05,0001.04,0000.34,0016.42,0015.12,0011.88,17.2,24.0,,00.0,0674.4,31.0
2021-05-07T01:27:00Z,00000200,01000000,0009.71,0006.78,0004.05,0002.30,0001.54,0001.12,0061.91,0057.21,0045.94,17.2,24.0,,00.0,0674.4,31.0
2021-05-07T01:28:00Z,00000200,01000000,0018.09,0013.34,0008.32,0003.39,0003.29,0002.27,0161.89,0149.61,0119.93,17.3,24.0,,00.0,0674.4,31.0
2021-05-07T01:29:00Z,00000200,01000000,0019.24,0013.25,0008.29,0003.94,0003.22,0002.25,0153.23,0141.45,0112.99,17.4,24.0,,00.0,0674.4,31.0
2021-05-07T01:30:00Z,00000200,01000000,0014.89,0009.89,0006.28,0002.68,0002.45,0001.45,0129.60,0120.97,0097.61,17.4,24.1,,00.0,0674.4,31.1
2021-05-07T01:31:00Z,00000200,01000000,0009.46,0006.44,0003.81,0001.50,0001.48,0001.38,0059.67,0054.66,0044.41,17.4,24.1,,00.0,0674.4,31.1
2021-05-07T01:32:00Z,00000200,01000000,0012.34,0008.50,0005.06,0002.18,0002.05,0001.34,0090.58,0084.38,0067.28,17.5,24.1,,00.0,0674.4,31.1
2021-05-07T01:33:00Z,00000200,01000000,0014.29,0009.21,0005.52,0002.52,0001.98,0001.42,0106.51,0098.77,0078.81,17.5,24.1,,00.0,0674.4,31.1
2021-05-07T01:34:00Z,00000200,01000000,0010.98,0007.12,0004.42,0002.05,0001.67,0001.12,0079.11,0073.14,0059.18,17.5,24.1,,00.0,0674.4,31.1
2021-05-07T01:35:00Z,00000200,01000000,0013.95,0009.55,0005.61,0002.30,0002.21,0001.75,0102.17,0094.50,0074.82,17.5,24.2,,00.0,0674.4,31.1
2021-05-07T01:36:00Z,00000200,01000000,0017.17,0012.31,0007.45,0003.55,0002.74,0002.07,0146.64,0135.92,0109.90,17.5,24.1,,00.0,0674.4,31.1
2021-05-07T01:37:00Z,00000200,01000000,0019.48,0013.75,0008.46,0004.01,0003.32,0002.41,0164.10,0151.54,0121.54,17.4,24.1,,00.0,0674.4,31.1
2021-05-07T01:38:00Z,00000200,01000000,0019.01,0013.50,0008.31,0003.64,0003.02,0002.32,0163.55,0151.93,0122.24,17.3,24.0,,00.0,0674.4,31.0
2021-05-07T01:39:00Z,00000200,01000000,0017.30,0012.19,0007.51,0003.29,0002.81,0002.08,0146.76,0136.91,0110.44,17.3,24.0,,00.0,0674.4,31.0
2021-05-07T01:40:00Z,00000200,01000000,0005.47,0003.45,0001.88,0000.59,0000.56,0000.54,0014.88,0013.48,0011.24,17.4,24.0,,00.0,0674.4,31.0
2021-05-07T01:41:00Z,00000200,01000000,0004.66,0003.01,0001.73,0000.54,0000.75,0000.50,0002.28,0002.46,0001.78,17.4,24.0,,00.0,0674.4,31.0
2021-05-07T01:42:00Z,00000200,01000000,0004.80,0002.77,0001.63,0000.71,0000.60,0000.48,0002.25,0002.05,0001.23,17.4,24.1,,00.0,0674.4,31.1
2021-05-07T01:43:00Z,00000200,01000000,0003.70,0002.60,0001.38,0000.92,0000.38,0000.55,0001.46,0001.18,0001.25,17.5,24.1,,00.0,0674.4,31.1
2021-05-07T01:44:00Z,00000200,01000000,0003.58,0002.15,0000.98,0000.04,0000.42,0000.18,0001.45,0001.23,0000.93,17.5,24.1,,00.0,0674.4,31.1
2021-05-07T01:45:00Z,00000200,01000000,0003.75,0001.47,0000.94,0001.05,0000.56,0000.20,0000.94,0001.37,0000.61,17.6,24.2,,00.0,0674.4,31.1
2021-05-07T01:46:00Z,00000200,01000000,0003.60,0002.00,0001.15,0000.31,0000.40,0000.24,0001.31,0001.15,0001.00,17.6,24.2,,00.0,0674.4,31.1
2021-05-07T01:47:00Z,00000200,01000000,0003.98,0001.96,0001.09,0000.70,0000.60,0000.51,0003.05,0002.71,0001.98,17.7,24.2,,00.0,0674.4,31.1
2021-05-07T01:48:00Z,00000200,01000000,0004.95,0002.93,0002.01,0000.69,0000.55,0000.63,0014.13,0012.96,0010.36,17.7,24.2,,00.0,0674.4,31.1
2021-05-07T01:49:00Z,00000200,01000000,0004.77,0003.08,0001.80,0000.40,0000.64,0000.82,0015.09,0014.00,0011.57,17.6,24.2,,00.0,0674.4,31.1
2021-05-07T01:50:00Z,00000200,01000000,0007.51,0004.14,0002.75,0001.71,0000.97,0000.60,0034.66,0031.92,0025.74,17.5,24.2,,00.0,0674.5,31.1
2021-05-07T01:51:00Z,00000200,01000000,0007.82,0004.99,0002.81,0001.53,0001.23,0001.03,0043.43,0040.71,0032.68,17.5,24.1,,00.0,0674.5,31.0
2021-05-07T01:52:00Z,00000200,01000000,0007.03,0004.31,0002.91,0000.75,0001.24,0000.76,0036.65,0033.76,0027.55,17.4,24.1,,00.0,0674.5,31.0
2021-05-07T01:53:00Z,00000200,01000000,0004.98,0003.46,0001.75,0001.02,0000.93,0000.67,0018.37,0016.88,0013.37,17.4,24.1,,00.0,0674.5,31.0
2021-05-07T01:54:00Z,00000200,01000000,0006.35,0003.91,0002.35,0000.92,0001.01,0000.63,0032.56,0030.03,0024.18,17.3,24.0,,00.0,0674.5,31.0
2021-05-07T01:55:00Z,00000200,01000000,0005.91,0003.57,0002.38,0001.02,0000.87,0000.61,0032.88,0030.94,0024.76,17.3,24.0,,00.0,0674.5,31.0
2021-05-07T01:56:00Z,00000200,01000000,0004.19,0002.72,0001.19,0000.19,0000.57,0000.54,0009.40,0009.02,0007.70,17.4,24.0,,00.0,0674.5,31.0
2021-05-07T01:57:00Z,00000200,41000000,,,,,,,0003.90,0002.91,0002.01,17.5,24.1,,00.0,0674.5,31.1
2021-05-07T01:58:00Z,00000200,61000000,,,,,,,-000.10,0000.19,0000.17,17.2,24.3,,00.0,0673.5,31.1
2021-05-07T01:59:00Z,00000200,21000000,,,,,,,0000.11,0000.20,0000.23,17.2,24.4,,00.0,0673.5,31.1
